Aérodrome :
LOGIN :

S'inscrire | Disclaimer

   EN    FR    IT 

 










Légende :    VFR   VFR Marginal   IFR   IFR Intensif   IFR Très Intensif
Visi : 
Plafond : 
>= 8 km
>= 3000ft
5 à 8 km
1000 à 3000 ft
1500m à 5 km
500 à 1000 ft
800 à 1500m
200 à 500 ft
< 800m
< 200 ft
Symboles :   Orages  Brouillard  Fortes neiges  Fortes précipitations  Vent > 20 kt
SIGMETs :   Divers  Orages  Givrage  Turbulence  Onde Orograph.  Cendres Volcan.






- Altitude de l'aérodrome : 7 ft
- Code IATA : POW


LJPZ - Portoroz

DERNIER METAR :
  • 060200Z AUTO 12004KT 100V180 9999 NCD 06/01 Q1024

METARs EXPIRÉS :
  • 060130Z AUTO 12004KT 9999 NCD 07/00 Q1024
  • 060100Z AUTO 13003KT 9999 NCD 07/01 Q1024
  • 060030Z AUTO 10005KT 9999 NCD 08/00 Q1024
  • 060000Z AUTO 12005KT 9999 NCD 08/00 Q1024
  • 052330Z AUTO 12005KT 9999 NCD 08/00 Q1024

TAF TAF LJPZ
Valide du 06 à 03h jusqu'au 06 à 12h UTC


060200Z 0603/0612 07008KT CAVOK
BECMG 0609/0612 32010KT



MET'MAP, la Météo Aéronautique d'un coup d'oeil ! - Copyright ORBIFLY Décembre 2007 - Disclaimer

ORBIFLY MET'MAP TEAM :

Programmation & Développement : Alexandra Zaïnal
Sur une idée originale de : Baudouin d'Aumeries
Assistance à la programmation : Marc-Olivier Méhu
Soutien technique & logistique : Manuel Goepfert

Contact : metmap@orbifly.com




SOURCES & CREDITS :

   NOAA